sat.trackr.live / text

‹ back to catalog

STARLINK-2442

NORAD 48106 · 2021-027Q

PAYLOAD ACTIVE UNKNOWN

§ Identity

Operator
Country
US
Launch date
2021-04-07
Launch site
AFETR
Launch vehicle
Mass (kg)
RCS (m²)

Purposes: comms

External: N2YO · Heavens-Above · Gunter

§ Orbital elements

Epoch: 2026-09-14T07:11:54.352896Z

Period
94.01 min
Inclination
53.1605°
Eccentricity
0.0001145
Mean motion
15.31698218 rev/d
Perigee alt
470.0 km
Apogee alt
471.5 km
Semi-major
6,848.9 km
B*
8.2936e-5
RAAN
354.9099°
Arg perigee
71.7825°
Mean anomaly
288.3301°
Rev number
30,158

§ Raw data

STARLINK-24421 48106U 21027Q   26257.29993464  .00002209  00000+0  82936-4 0  99932 48106  53.1605 354.9099 0001145  71.7825 288.3301 15.31698218301587

JSON: /api/v1/satellites/48106 · /tle

For live sub-satellite position, see the globe view (requires WebGL).

§ Visibility from observer

Set your observer location to see the next 7 days of passes ≥ 10°. The values pass through the URL so the page stays shareable.

No JS? Fill the form by hand. The geolocation button needs JavaScript.